TimeCST,TemperatureF,Dew PointF,Humidity,Sea Level PressureIn,VisibilityMPH,Wind Direction,Wind SpeedMPH,Gust SpeedMPH,PrecipitationIn,Events,Conditions,WindDirDegrees,DateUTC
12:15 AM,44.8,21.0,39,30.02,10.0,South,8.1,-,N/A,,Clear,170,2012-12-08 06:15:00
12:35 AM,45.3,21.2,38,30.02,10.0,South,8.1,-,N/A,,Clear,190,2012-12-08 06:35:00
12:55 AM,45.3,21.2,38,30.02,10.0,SSW,10.4,-,N/A,,Clear,210,2012-12-08 06:55:00
1:15 AM,44.8,21.2,39,30.02,10.0,WSW,3.5,-,N/A,,Clear,250,2012-12-08 07:15:00
1:35 AM,44.6,21.2,39,30.02,10.0,Calm,Calm,-,N/A,,Clear,0,2012-12-08 07:35:00
1:55 AM,46.4,21.2,37,30.02,10.0,West,4.6,-,N/A,,Clear,260,2012-12-08 07:55:00
2:15 AM,44.8,21.2,39,30.02,10.0,SSE,5.8,-,N/A,,Clear,160,2012-12-08 08:15:00
2:35 AM,42.3,21.2,43,30.02,10.0,South,5.8,-,N/A,,Clear,190,2012-12-08 08:35:00
2:55 AM,41.9,21.2,44,30.02,10.0,South,5.8,-,N/A,,Clear,190,2012-12-08 08:55:00
3:15 AM,43.0,21.2,42,30.02,10.0,South,10.4,-,N/A,,Clear,170,2012-12-08 09:15:00
3:35 AM,42.1,21.0,43,30.02,10.0,South,5.8,-,N/A,,Clear,180,2012-12-08 09:35:00
3:55 AM,41.2,21.2,45,30.02,10.0,Calm,Calm,-,N/A,,Clear,0,2012-12-08 09:55:00
4:15 AM,40.5,20.8,46,30.02,10.0,South,3.5,-,N/A,,Clear,190,2012-12-08 10:15:00
4:35 AM,39.2,20.8,48,30.02,10.0,Calm,Calm,-,N/A,,Clear,0,2012-12-08 10:35:00
5:15 AM,38.7,20.8,49,30.02,10.0,SSW,8.1,-,N/A,,Clear,200,2012-12-08 11:15:00
5:35 AM,39.9,21.2,47,30.02,10.0,Calm,Calm,-,N/A,,Clear,0,2012-12-08 11:35:00
5:55 AM,39.6,20.8,47,30.02,10.0,SW,5.8,-,N/A,,Clear,220,2012-12-08 11:55:00
6:15 AM,39.7,21.0,47,30.03,10.0,SW,4.6,-,N/A,,Clear,230,2012-12-08 12:15:00
6:35 AM,41.0,21.0,45,30.03,10.0,SSW,10.4,-,N/A,,Clear,210,2012-12-08 12:35:00
6:55 AM,42.3,21.2,43,30.04,10.0,South,8.1,-,N/A,,Clear,190,2012-12-08 12:55:00
7:15 AM,42.4,21.2,43,30.04,10.0,SSW,10.4,-,N/A,,Clear,200,2012-12-08 13:15:00
7:35 AM,41.9,21.2,44,30.04,10.0,SSW,5.8,-,N/A,,Clear,200,2012-12-08 13:35:00
7:55 AM,39.9,21.2,47,30.06,10.0,Calm,Calm,-,N/A,,Clear,0,2012-12-08 13:55:00
8:15 AM,41.9,21.7,45,30.06,10.0,SSW,8.1,-,N/A,,Clear,200,2012-12-08 14:15:00
8:35 AM,47.7,23.5,39,30.06,10.0,SSW,8.1,-,N/A,,Clear,200,2012-12-08 14:35:00
8:55 AM,54.9,25.3,32,30.06,10.0,SSW,6.9,-,N/A,,Clear,200,2012-12-08 14:55:00
9:15 AM,58.8,26.4,29,30.06,10.0,SSW,9.2,-,N/A,,Clear,200,2012-12-08 15:15:00
9:35 AM,61.3,27.3,27,30.06,10.0,SW,6.9,-,N/A,,Clear,220,2012-12-08 15:35:00
9:55 AM,63.1,28.0,27,30.07,10.0,WSW,9.2,-,N/A,,Clear,240,2012-12-08 15:55:00
10:15 AM,63.7,28.2,26,30.07,10.0,SW,10.4,-,N/A,,Clear,230,2012-12-08 16:15:00
10:35 AM,64.4,28.4,26,30.08,10.0,WSW,12.7,-,N/A,,Clear,240,2012-12-08 16:35:00
10:55 AM,65.3,28.2,25,30.07,10.0,West,10.4,18.4,N/A,,Clear,260,2012-12-08 16:55:00
11:15 AM,65.8,27.9,24,30.07,10.0,WSW,12.7,17.3,N/A,,Clear,240,2012-12-08 17:15:00
11:35 AM,67.1,27.5,23,30.06,10.0,WSW,18.4,21.9,N/A,,Clear,240,2012-12-08 17:35:00
11:55 AM,67.6,27.0,22,30.05,10.0,WSW,17.3,23.0,N/A,,Clear,240,2012-12-08 17:55:00
12:15 PM,68.0,26.8,21,30.04,10.0,WSW,11.5,21.9,N/A,,Clear,240,2012-12-08 18:15:00
12:35 PM,68.4,27.0,21,30.04,10.0,SW,13.8,-,N/A,,Clear,220,2012-12-08 18:35:00
12:55 PM,68.5,27.1,21,30.02,10.0,WSW,11.5,-,N/A,,Clear,240,2012-12-08 18:55:00
1:15 PM,68.9,26.2,20,30.01,10.0,SW,16.1,24.2,N/A,,Clear,230,2012-12-08 19:15:00
1:35 PM,69.3,26.2,20,30.00,10.0,SW,15.0,19.6,N/A,,Clear,220,2012-12-08 19:35:00
1:55 PM,70.2,25.3,19,29.99,10.0,SW,16.1,23.0,N/A,,Clear,220,2012-12-08 19:55:00
2:35 PM,70.0,24.3,18,29.97,10.0,SW,18.4,25.3,N/A,,Clear,220,2012-12-08 20:35:00
2:55 PM,70.0,22.6,17,29.97,10.0,SW,18.4,24.2,N/A,,Clear,220,2012-12-08 20:55:00
3:15 PM,69.3,22.1,17,29.96,10.0,SW,15.0,20.7,N/A,,Clear,230,2012-12-08 21:15:00
3:35 PM,68.9,21.7,17,29.96,10.0,SW,18.4,23.0,N/A,,Clear,220,2012-12-08 21:35:00
3:55 PM,68.9,21.2,16,29.96,10.0,WSW,13.8,18.4,N/A,,Clear,240,2012-12-08 21:55:00
4:15 PM,68.4,20.5,16,29.96,10.0,SW,13.8,19.6,N/A,,Clear,220,2012-12-08 22:15:00
4:35 PM,68.0,21.2,17,29.96,10.0,WSW,15.0,18.4,N/A,,Clear,240,2012-12-08 22:35:00
4:55 PM,67.5,21.4,17,29.96,10.0,WSW,10.4,-,N/A,,Clear,240,2012-12-08 22:55:00
5:15 PM,65.8,20.7,18,29.97,10.0,SW,11.5,18.4,N/A,,Clear,230,2012-12-08 23:15:00
5:35 PM,64.0,20.8,19,29.97,10.0,WSW,11.5,-,N/A,,Clear,240,2012-12-08 23:35:00
6:15 PM,60.4,21.6,22,29.98,10.0,SW,8.1,-,N/A,,Clear,230,2012-12-09 00:15:00
6:35 PM,57.7,21.4,24,29.99,10.0,South,5.8,-,N/A,,Clear,190,2012-12-09 00:35:00
6:55 PM,54.1,21.6,28,29.98,10.0,South,8.1,-,N/A,,Clear,190,2012-12-09 00:55:00
7:15 PM,54.1,21.9,29,29.99,10.0,SSW,8.1,-,N/A,,Clear,200,2012-12-09 01:15:00
7:55 PM,53.4,22.8,30,30.00,10.0,Calm,Calm,-,N/A,,Clear,0,2012-12-09 01:55:00
8:15 PM,55.4,23.9,30,30.00,10.0,Calm,Calm,-,N/A,,Clear,0,2012-12-09 02:15:00
8:35 PM,55.8,24.1,29,30.00,10.0,Calm,Calm,-,N/A,,Clear,0,2012-12-09 02:35:00
8:55 PM,54.9,24.1,30,30.00,10.0,Calm,Calm,-,N/A,,Clear,0,2012-12-09 02:55:00
9:15 PM,54.1,24.1,31,30.00,10.0,Calm,Calm,-,N/A,,Clear,0,2012-12-09 03:15:00
9:35 PM,53.1,23.7,32,30.01,10.0,Calm,Calm,-,N/A,,Clear,0,2012-12-09 03:35:00
9:55 PM,50.5,23.5,35,30.01,10.0,SW,3.5,-,N/A,,Clear,230,2012-12-09 03:55:00
10:35 PM,52.2,23.4,33,30.02,10.0,Calm,Calm,-,N/A,,Clear,0,2012-12-09 04:35:00
10:55 PM,52.7,23.0,31,30.02,10.0,WSW,3.5,-,N/A,,Clear,250,2012-12-09 04:55:00
11:15 PM,52.7,23.0,31,30.02,10.0,SW,3.5,-,N/A,,Clear,230,2012-12-09 05:15:00
11:35 PM,53.4,23.0,31,30.02,10.0,South,5.8,-,N/A,,Clear,190,2012-12-09 05:35:00
11:55 PM,53.8,23.0,30,30.02,10.0,SW,8.1,-,N/A,,Clear,220,2012-12-09 05:55:00